STARLINK-32343, 61712

Orbit data source: Space-Track

STARLINK-32343, 61712 is a payload satellite owned by SpaceX/Seattle (US) in LEO that was launched on Wed, 30 Oct 2024 UTC via an FALCON 9 launch vehicle from the Air Force Eastern Test Range (AFETR). Payloads include a variety of satellites, spacecraft, and rockets equipped with specific instruments for various scientific and technological missions. These include communications satellites like Starlink; space stations such as the ISS; scientific satellites like the Hubble; Earth observation satellites from companies like Planet Labs, Umbra, and HawkEye 360; GPS; miniature CubeSats for education and research; and military/defense satellites.

Loading next visibility...
STARLINK-32343 details
Identifier
61712, 2024-196F
Orbit
LEO
Last TLE update7 hours ago
Origin
Flag of USSpaceX/Seattle (US)
ManufacturerSpaceX/Seattle
MissionOperational spacecraft
Bus & MotorSTARLINK V2M, Unknown motor
Mass730 kg wet, ~700 kg dry
Launch date (UTC)
2024-10-30 (2 months ago)
Launch vehicle
FALCON 9
Launch site
Air Force Eastern Test Range (AFETR)
Object type
Payload
Rocket body
Debris
Shape & HBRUnknown
Radar Cross SectionLarge (>1 m²)

Expand to show TLE details & history

TLE from 7 hours ago
0 STARLINK-32343
1 61712U 24196F   24361.14965706  .00000712  00000-0  27786-4 0  9997
2 61712  53.1636 340.4814 0001754 102.3009 257.8192 15.39619619  9776
Epoch: 2024-12-26T03:35Z
Definitive object data (Epoch: 2024-12-26T03:35:30.369Z)
Latitude-0.00008°
Longitude-168.52839°
Altitude448.39 km
Speed7.644 km/s
True Right ascension22h 41m 55s
True Declination0° 00' 00"
Sunlit
Object was in daylight at TLE epoch
Visualization TLE readout
Latitude-30.45163°
Longitude36.03533°
Altitude457.07 km
Speed7.638 km/s
Apparent Right ascension16h 04m 50s
Apparent Declination-66° 45' 50"
Sunlit
Object is in daylight
Visualization observer readout
Local Sidereal Time10:07:28
Azimuth150.863° SSE
Elevation-35.883°
Doppler factor1
Orbital elements
Apogee altitude448.687 km
Perigee altitude446.293 km
Semi-major axis6,825.627 km
Eccentricity0.0001754
Inclination53.1636°
RAAN340.4814°
Arg. of periapsis102.3009°
True anomaly257.79955°
Mean anomaly257.8192°
Eccentric anomaly257.80938°
Mean motion3.84884 °/min
BSTAR0.000027786
Orbital period93.53 mins
Loading maneuver chart data...
Loading historical data...
Loading historical data...
Loading historical data...
Loading historical data...
Loading historical data...
Loading historical data...
Loading historical data...

STARLINK-32343 Visibility forecast

Observer location: undefined°, undefined

Span
Click to sort rows by Start time (UTC) header in descending order
Start Az.
Max El. time (UTC)
Max El. Az.
Max El.
End time (UTC)
End Az.
6 mins2024-12-27 01:35:14.587Z230.947° WSW2024-12-27 01:38:14.587Z26.731° NE44.485°2024-12-27 01:41:14.587Z49.065° ENE
5 mins2024-12-27 08:08:14.587Z315.629° NNW2024-12-27 08:10:14.587Z347.453° N42.092°2024-12-27 08:13:14.587Z122.996° SE
|